Location: Drütte
(52.1530°N, 10.4487°E)
Time: 07:59:36
(UTC+00:00)

Daily predictions for brighter satellites

Satellite Brightness Start Highest point End
(mag) Time Altitude Azimuth Time Altitude Azimuth Time Altitude Azimuth
Cosmos 1459 Rocket 4.5 19:36:27 10° SSW 19:42:36 67° WNW 19:48:44 10° N
Cosmos 2061 Rocket 4.2 19:37:58 10° S 19:44:02 58° E 19:50:14 10° NNE
CZ-4 R/B 2.8 19:42:00 10° SSW 19:45:19 34° W 19:48:41 10° NNW
USA 186 1.9 19:43:30 10° SE 19:46:08 44° ENE 19:48:48 10° N
Cosmos 2228 2.9 19:42:30 10° S 19:46:35 75° E 19:50:41 10° NNE
SL-08 R/B 3.5 19:42:24 10° NNE 19:47:10 57° E 19:51:49 10° S
COSMOS 2406 3.6 19:41:51 10° S 19:47:14 43° ESE 19:52:38 10° NE
CZ-4B R/B 4.3 19:44:12 10° SE 19:48:28 34° ENE 19:52:52 10° N
Cosmos 1743 3.8 19:45:51 10° NNW 19:48:37 33° W 19:51:22 10° SSW
Cosmos 1933 4.4 19:46:05 10° SSE 19:49:16 26° E 19:52:28 10° NNE
ISS -3.8 19:46:36 10° W 19:49:57 79° S 19:53:18 10° E
SKYMED 3 4.3 19:47:06 10° NNE 19:51:04 74° ESE 19:55:02 10° S
Cosmos 1461 3.3 19:47:48 10° S 19:51:05 30° ESE 19:54:21 10° ENE
Cosmos 1455 Rocket 3.5 19:47:00 10° SSW 19:51:23 67° WNW 19:55:46 10° N
Cosmos 1992 Rocket 4.1 19:46:24 10° S 19:51:30 59° ESE 19:56:38 10° NNE
Cosmos 1802 Rocket 4.3 19:46:15 10° SSW 19:52:24 75° WNW 19:58:34 10° N
Meteor 1-20 Rocket 4.4 19:47:26 10° N 19:52:59 60° ENE 19:58:35 10° SSE
Terra 2.4 19:48:46 10° S 19:53:23 57° W 19:58:02 10° NNW
Okean O Rocket 1.6 19:53:37 10° SSE 19:57:55 84° ENE 20:02:15 10° NNW
Cosmos 2333 Rocket 2.3 19:52:48 10° NNW 19:58:33 77° ENE 20:04:16 10° SE
NOSS 3-3 (A) 3.7 19:59:48 10° SW 20:05:03 77° SE 20:11:26 10° NE
Cosmos 1544 Rocket 3.7 20:00:57 10° S 20:05:09 52° E 20:09:21 10° NNE
Cosmos 1437 Rocket 3.0 20:04:13 10° SSE 20:07:35 41° E 20:11:01 10° NNE
Helios 1A Rocket 3.4 20:05:30 10° N 20:08:33 47° WNW 20:11:35 10° SW
Cosmos 2360 Rocket 2.5 20:02:55 10° NNW 20:08:34 59° NE 20:13:59 11° SE
EP 1 4.2 20:10:53 10° NW 20:13:29 84° SW 20:15:44 14° SE
CZ-4B R/B 4.2 20:08:23 10° S 20:13:48 47° W 20:19:13 10° NNW
Cosmos 2233 Rocket 4.2 20:09:48 10° SSW 20:15:59 77° W 20:22:10 10° N
Cosmos 1486 Rocket 4.1 20:13:48 10° NNW 20:19:05 71° ENE 20:23:55 12° SSE
Okean-O 3.0 20:15:48 10° S 20:20:08 63° WSW 20:24:30 10° NNW
Cosmos 1758 Rocket 3.7 20:16:30 10° NNW 20:20:54 75° W 20:25:19 10° S
Cosmos 2219 Rocket 2.8 20:15:45 10° NNW 20:21:15 49° NE 20:26:24 12° SE
Cosmos 909 Rocket 4.1 20:16:01 10° SW 20:22:19 87° SE 20:28:58 10° NE
CZ-2C R/B 3.0 20:21:09 14° SE 20:23:02 30° ENE 20:25:32 10° N
DNEPR-1 R/B 4.4 20:23:44 10° NW 20:29:08 75° SW 20:34:57 14° SSE
Nadezhda 4 Rocket 4.2 20:24:05 10° N 20:30:07 57° ENE 20:35:27 13° SSE
Meteor 1-25 Rocket 4.2 20:24:38 10° NNW 20:30:21 85° ENE 20:35:42 11° SSE
USA 245 4.3 20:25:47 10° SSE 20:31:41 88° WSW 20:37:08 10° NNW
IRS-1C Rocket 4.2 20:27:08 12° SSE 20:32:00 73° ENE 20:37:17 10° NNW
Cosmos 1825 Rocket 4.0 20:29:20 10° N 20:33:33 47° ENE 20:36:52 16° SE
Cosmos 1805 2.8 20:30:56 10° N 20:34:12 65° ENE 20:36:34 17° SSE
Cosmos 220 Rocket 3.8 20:33:32 10° S 20:37:32 61° ESE 20:41:37 10° NNE
NOSS 3-3 (C) 3.9 20:32:15 10° SW 20:37:38 84° NW 20:44:13 10° NE
Meteor 2-10 4.3 20:32:16 10° N 20:38:00 68° ENE 20:42:50 15° SSE
Cosmos 1953 Rocket 4.5 20:36:15 10° N 20:40:15 34° ENE 20:43:09 16° SE
Cosmos 2322 Rocket 2.2 20:35:25 10° NNW 20:41:07 85° WSW 20:45:49 15° SSE
RESURS DK-1 4.2 20:38:47 10° NNW 20:41:55 21° NE 20:45:02 10° E
Cosmos 1602 Rocket 3.7 20:40:33 10° NNW 20:44:52 74° W 20:48:44 13° S
USA 306 2.2 20:43:32 10° W 20:46:15 46° N 20:47:38 14° ENE
Cosmos 2082 Rocket 3.4 20:41:55 10° WSW 20:47:24 46° NW 20:52:54 10° NNE
NOSS 3-4 (A) 4.0 20:42:09 10° NW 20:48:44 69° SW 20:55:07 16° SSE
NOSS 3-4 (C) 4.0 20:42:47 10° NW 20:49:23 70° SW 20:55:45 16° SSE
Cosmos 2026 Rocket 4.5 20:46:09 10° N 20:52:22 50° ENE 20:57:08 17° SE
Cosmos 1707 3.9 20:52:04 15° E 20:52:26 15° E 20:54:12 10° NE
CZ-4B R/B 3.0 20:49:58 14° S 20:52:42 54° WSW 20:56:09 10° NNW
Cosmos 2151 4.0 20:51:11 10° NNW 20:55:03 40° W 20:58:53 10° SSW
Cosmos 2058 Rocket 4.4 20:53:53 17° SE 20:55:52 23° E 20:59:19 10° NE
Cosmos 1076 Rocket 3.6 20:53:23 10° N 20:57:37 60° ENE 21:00:20 21° SSE
Cosmos 2098 Rocket 3.0 20:53:24 11° S 20:57:54 80° E 21:01:56 10° NNE
Cosmos 44 3.7 20:53:11 10° NW 20:58:37 68° NE 21:02:45 17° SE
Cosmos 2237 Rocket 4.1 20:54:34 10° NNW 20:59:02 23° NE 21:03:29 10° E
CZ-4C R/B 4.0 20:56:34 10° W 21:01:01 33° NNW 21:06:42 10° NE
Ariane Rocket 3.2 20:59:02 15° S 21:03:16 67° WSW 21:08:21 10° NNW
SL-16 R/B 3.5 21:07:01 10° NW 21:12:00 32° WSW 21:16:43 11° SSW
COSMOS 2428 3.5 21:07:41 10° NNW 21:13:09 44° NE 21:17:37 15° ESE
SPOT 3 Rocket 4.4 21:09:24 11° S 21:14:01 44° W 21:18:56 10° NNW
Cosmos 1470 4.3 21:12:24 10° NNE 21:14:50 19° ENE 21:16:07 15° E
Cosmos 1763 Rocket 3.6 21:10:53 14° S 21:15:19 59° ESE 21:20:30 10° NNE
USA 186 4.4 21:15:07 10° WSW 21:15:44 11° W 21:16:21 10° WNW
ARIANE 5 R/B 4.3 21:15:19 13° ESE 21:18:09 24° ENE 21:21:43 10° N
ALOS 2 4.4 21:17:23 12° ESE 21:20:13 21° ENE 21:23:30 10° N
USA 290 2.1 21:18:07 18° SSW 21:20:20 89° WNW 21:23:29 10° NNE
Cosmos 1606 Rocket 3.6 21:17:15 15° SSW 21:20:47 81° W 21:25:07 10° N
Cosmos 1898 Rocket 4.3 21:15:53 10° NNW 21:20:50 43° NE 21:24:24 18° ESE
Cosmos 990 Rocket 4.0 21:17:37 10° NNW 21:22:47 76° WSW 21:26:04 23° SSE
Cosmos 1464 Rocket 4.1 21:18:41 10° SSW 21:24:49 78° W 21:31:03 10° N
Helios 1B rocket 3.0 21:24:22 24° ESE 21:25:52 36° ENE 21:29:07 10° N
ISS -3.9 21:23:22 10° W 21:26:43 68° SSW 21:28:15 29° ESE
CZ-4B R/B 4.4 21:23:15 14° SSW 21:27:03 39° W 21:31:37 10° NNW
Cosmos 1461 4.0 21:23:45 10° WSW 21:27:16 40° NW 21:30:45 10° NNE
Okean 1 3.1 21:25:54 21° SSW 21:28:11 75° WNW 21:31:48 10° N
Cosmos 1726 Rocket 3.3 21:25:49 21° S 21:28:27 90° W 21:32:32 10° N
BREEZE-M DEB (TANK) 1.9 21:26:32 10° WSW 21:28:12 33° SW 21:28:12 33° SW
COSMOS 2406 4.4 21:26:04 10° WSW 21:31:33 44° NW 21:37:03 10° NNE
Okean O Rocket 4.1 21:32:35 10° WSW 21:34:42 13° W 21:36:49 10° WNW
Cosmos 1536 2.7 21:31:51 10° N 21:35:30 64° ENE 21:36:59 33° SSE
Cosmos-2242 2.9 21:37:47 29° S 21:39:47 68° E 21:43:54 10° NNE
Cosmos 1092 Rocket 4.0 21:35:09 10° N 21:41:22 87° E 21:45:21 24° S
Cosmos 2333 Rocket 4.0 21:37:56 10° NW 21:42:14 22° WSW 21:46:30 10° SSW
NOSS 0 Rocket 4.4 21:36:16 10° NNW 21:42:22 57° NE 21:46:51 18° SE
KORONAS-FOTON 3.8 21:43:53 38° SE 21:44:41 48° E 21:47:58 10° NNE
Cosmos 2297 Rocket 3.8 21:46:14 16° ESE 21:47:37 18° E 21:51:17 10° ENE
Cosmos 841 Rocket 4.4 21:47:27 25° SE 21:49:14 32° ESE 21:53:49 10° NE
Cosmos 1833 4.2 21:44:29 10° SSW 21:50:09 87° WNW 21:55:50 10° NNE
Meteor 1-14 Rocket 4.5 21:46:07 10° N 21:51:37 58° ENE 21:54:41 26° SE
Cosmos 2360 Rocket 3.5 21:47:21 10° NW 21:52:14 30° WSW 21:55:44 16° SSW
CZ-2C R/B 4.4 21:52:45 12° WSW 21:53:53 15° W 21:55:33 10° NW
Cosmos 1766 3.2 21:52:40 10° NNW 21:55:50 53° W 21:56:45 37° SSW
Cosmos 2322 3.7 21:51:20 10° NNW 21:57:05 86° ENE 22:00:18 27° SSE
Cosmos 1842 3.0 21:56:49 44° ESE 21:57:12 47° E 22:00:16 10° NNE
Cosmos 1975 3.2 21:54:33 10° N 21:58:05 44° ENE 21:59:14 33° ESE
Spot 4 4.3 21:57:15 26° SE 21:59:41 53° ENE 22:04:21 10° N
Meteor 2-6 Rocket 4.4 21:58:28 27° S 22:01:48 64° E 22:07:42 10° NNE
Cosmos 372 Rocket 3.9 21:57:49 10° NNW 22:02:57 76° WSW 22:05:24 31° SSE
Cosmos 2034 Rocket 4.4 21:58:36 14° SSW 22:04:03 63° WNW 22:10:22 10° N
Cosmos 2221 3.1 22:03:18 31° SE 22:04:30 39° E 22:08:26 10° NNE
Cosmos 2219 Rocket 3.1 21:59:55 10° NW 22:05:05 37° WSW 22:08:05 22° SSW
Cosmos 1271 Rocket 2.6 22:06:21 47° SE 22:06:55 54° E 22:10:13 10° NNE
SL-08 ROCKET BODY 4.4 22:03:56 10° N 22:10:09 87° E 22:13:38 28° S
Cosmos 540 Rocket 3.9 22:07:44 11° SW 22:12:36 59° WNW 22:17:42 10° NNE
Helios 1A 3.0 22:12:21 10° N 22:16:15 66° WNW 22:18:07 29° SW
RESURS DK-1 2.3 22:15:42 10° NW 22:19:39 66° WSW 22:20:45 43° S
Cosmos 2279 Rocket 4.0 22:16:39 27° S 22:20:14 78° E 22:26:31 10° NNE
Aureole 1 Rocket 4.5 22:15:20 10° NW 22:20:55 49° WSW 22:24:34 25° SSW
Cosmos 2322 Rocket 4.2 22:20:49 10° WNW 22:24:19 17° W 22:27:37 11° SW
Cosmos 1707 3.6 22:23:33 23° WSW 22:24:26 27° WNW 22:26:56 10° N
Cosmos 1634 Rocket 4.1 22:22:33 22° SSW 22:26:39 72° WNW 22:32:54 10° N
Meteor 1-19 Rocket 4.4 22:24:37 30° SSE 22:27:26 63° E 22:33:20 10° NNE
Cosmos 1937 Rocket 3.4 22:22:42 10° NNW 22:27:52 84° WSW 22:30:09 34° SSE
TSX-5 4.3 22:26:56 10° NW 22:29:48 31° WSW 22:29:54 31° WSW
Geosat 4.1 22:26:54 10° NNE 22:31:55 75° NW 22:35:38 18° SW
SL-16 R/B 3.9 22:27:24 10° NNW 22:32:20 29° NE 22:37:15 10° E
CZ-2C R/B 3.6 22:28:01 10° NNE 22:32:30 77° ESE 22:34:15 37° S
Cosmos 2058 Rocket 3.9 22:30:59 21° SW 22:33:29 43° WNW 22:37:39 10° N
Cosmos 468 Rocket 4.2 22:30:13 19° SW 22:33:59 68° WNW 22:39:15 10° NNE
GP-B 3.6 22:30:31 10° NNE 22:34:45 46° E 22:36:11 33° SE
Meteor 2-9 Rocket 4.2 22:33:29 10° NNW 22:38:51 69° W 22:41:25 32° S
CZ-2C R/B 3.3 22:39:09 22° SE 22:42:10 45° ENE 22:47:06 10° N
Lacrosse 4 Rocket 2.8 22:42:44 22° ESE 22:42:44 22° ESE 22:45:47 10° ENE
Cosmos 2237 Rocket 2.2 22:38:18 10° NNW 22:44:01 79° ENE 22:47:09 28° SE
USA 234 3.8 22:41:13 10° ENE 22:47:15 38° SE 22:49:36 29° S
Cosmos 2266 Rocket 3.9 22:41:18 10° N 22:47:23 88° E 22:50:26 31° S
SeaSat 1 3.8 22:43:01 10° ESE 22:47:26 35° NE 22:51:52 10° NNW
Cosmos 1980 3.7 22:42:34 10° NNW 22:48:16 88° ENE 22:51:12 30° SSE
Cosmos 1470 3.4 22:45:50 10° NNW 22:48:51 33° W 22:49:19 31° WSW
CZ-4C R/B 4.4 22:45:54 10° NW 22:50:52 30° N 22:57:05 10° ENE
ATLAS 2AS CENTAUR R/B 4.1 22:46:10 10° NW 22:52:28 38° NNE 22:58:44 10° E
Intercosmos 24 3.9 22:48:44 10° N 22:52:37 62° ENE 22:53:30 45° SE
ARIANE 5 R/B 3.0 22:52:41 36° SSW 22:54:10 53° W 22:58:33 10° NNW
ALOS 2 2.8 22:54:46 39° SSW 22:56:11 60° WSW 23:00:33 10° NNW
COSMOS 2428 3.3 22:52:03 10° NW 22:57:24 43° WSW 22:59:34 30° SSW
Cosmos 2227 Rocket 3.5 22:55:49 22° SE 22:57:34 26° ESE 23:02:10 10° NE
Helios 1B rocket 3.8 22:58:18 20° WSW 22:58:57 21° W 23:01:40 10° NW
Meteor 2-4 Rocket 4.2 23:00:13 30° SSE 23:02:29 48° E 23:07:48 10° NNE
Cosmos 1898 Rocket 4.4 22:58:03 10° NW 23:02:45 35° WSW 23:04:34 27° SW
ISS -1.5 23:00:23 10° W 23:01:11 15° W 23:01:11 15° W
BlueWalker 3 3.8 23:05:21 17° E 23:05:21 17° E 23:06:29 10° E
Cosmos 2263 Rocket 3.8 23:03:56 17° SE 23:05:44 19° E 23:09:36 10° ENE
CZ-2C R/B 3.5 23:01:05 10° NNE 23:06:48 61° E 23:09:26 32° SSE
Meteor 1-11 Rocket 3.9 23:02:08 10° NNW 23:07:43 62° W 23:10:10 33° SSW
Cosmos 1766 Rocket 3.5 23:04:24 10° N 23:08:42 74° ENE 23:10:08 41° SSE
SAR-Lupe-2 3.8 23:10:57 44° WSW 23:11:12 45° W 23:14:26 10° NNW
Meteor 1-10 Rocket 4.4 23:11:29 30° SSW 23:14:35 76° WNW 23:20:34 10° N
Cosmos 1238 Rocket 3.0 23:14:04 44° SSE 23:15:09 64° E 23:19:33 10° NNE
PSLV R/B 3.6 23:11:21 10° N 23:15:37 72° WNW 23:17:16 37° SSW
Cosmos 1655 Rocket 4.0 23:14:36 10° N 23:20:53 81° E 23:24:15 30° SSE
Cosmos 192 4.3 23:17:09 10° NNW 23:22:08 86° ENE 23:24:20 33° SSE
Alouette 2 Rocket 3.5 23:22:50 10° NNW 23:26:37 88° W 23:28:18 38° SSE
Meteor 1-27 Rocket 3.7 23:25:49 32° SSW 23:28:39 86° WNW 23:34:25 10° NNE
Meteor 2-10 Rocket 3.8 23:23:41 10° N 23:29:14 76° ENE 23:32:13 29° SSE
Cosmos 1340 Rocket 4.5 23:27:19 10° N 23:30:35 26° ENE 23:32:47 16° ESE
Cosmos 841 Rocket 4.2 23:27:23 20° SW 23:30:50 48° WNW 23:35:56 10° NNE
Cosmos 2297 Rocket 2.1 23:27:59 31° SSW 23:30:51 89° ESE 23:36:33 10° NNE
SL-14 R/B 4.1 23:39:49 32° SE 23:40:48 38° E 23:44:21 10° NNE
CZ-4C R/B 3.8 23:38:00 10° NNE 23:41:14 38° E 23:41:47 35° SE
Cosmos 2221 4.1 23:39:35 17° WSW 23:41:40 25° WNW 23:45:11 10° N
Cosmos 158 Rocket 4.1 23:39:40 35° S 23:41:55 69° ESE 23:47:13 10° NNE
ACS3 Solar Sail 2.4 23:37:13 10° NNE 23:42:57 45° E 23:46:10 25° SSE
MetOp-A 4.4 23:42:38 33° SW 23:44:13 44° W 23:48:41 10° NNW
Landsat 5 3.4 23:43:15 10° NNE 23:47:20 67° ESE 23:48:28 43° SSE
Cosmos 1500 Rocket 4.4 23:44:16 10° N 23:48:32 45° ENE 23:50:58 23° SE
